Location: Corralito
(14.1667°N, 87.1833°W)
Time: 21:31:11
(UTC+00:00)

GEOS 3 Rocket - Pass Details

Date: 07 June 2020
Orbit: 772 x 847 km, 115.0° (Epoch: 04 July)

Event Time Altitude Azimuth Distance (km) Brightness Sun altitude
Rises 10:03:59 0° 171° (S) 3,246 6.5 -17.2°
Reaches altitude 10° 10:06:26 10° 180° (S) 2,327 5.7 -16.7°
Maximum altitude 10:10:54 32° 243° (WSW) 1,316 4.1 -15.8°
Drops below altitude 10° 10:15:27 10° 306° (NW) 2,365 5.8 -14.8°
Sets 10:17:58 0° 316° (NW) 3,308 6.6 -14.3°
